Lapse_Rate
7.8 5.9 4.6 3.4 2.3 0.8 0.4 -0.0 -0.2 -1.0 -2.4 -2.9 -2.6 -1.2 -0.7 -0.3 -1.5 -1.5 -1.3 -1.3 -1.5 -1.6 -0.9 0.1 1.3 2.0 2.9 5.5 6.6 6.1 6.2 5.1 4.6 4.8 5.0 4.8 2.4 1.7 1.4 2.6 3.3 3.4 4.3
6.4 5.4 4.0 2.7 1.4 1.2 0.7 -0.5 -0.8 -0.4 -1.5 -2.2 -2.4 -1.5 -0.7 -0.4 -1.4 -2.0 -2.1 -2.1 -1.4 -2.2 -1.3 -1.6 -0.7 -0.3 1.4 3.4 4.9 6.2 5.7 5.2 4.8 5.5 5.1 5.8 3.9 1.9 1.6 1.2 1.5 1.9 2.8
7.0 6.2 4.9 3.4 2.3 1.1 0.4 0.2 -0.3 -0.8 -0.9 -1.0 -1.2 -1.0 -0.7 -0.6 -1.5 -2.2 -2.3 -2.5 -2.2 -1.7 -2.3 -2.1 -1.7 -1.1 -0.3 -0.3 1.1 3.2 4.9 5.6 5.0 4.8 6.3 5.7 4.5 2.9 2.0 1.8 0.8 1.3 1.5
6.9 6.6 5.5 4.1 3.1 2.4 1.7 0.8 -0.1 -0.9 -0.8 -1.1 -1.5 -1.8 -2.0 -2.4 -1.9 -1.8 -1.6 -1.7 -2.4 -2.4 -2.9 -2.4 -2.1 -1.8 -1.3 -0.9 -0.4 1.5 2.4 4.8 5.4 5.0 4.9 4.9 5.3 5.7 4.5 2.6 2.0 1.6 1.7
6.7 6.4 6.0 5.1 3.9 2.4 1.5 0.7 0.3 -1.0 -1.9 -1.7 -1.5 -1.4 -1.3 -0.5 -0.3 -0.8 -0.9 -1.3 -1.9 -2.0 -2.7 -2.8 -2.3 -1.9 -1.6 -1.3 -1.0 -0.4 1.1 2.7 4.6 5.3 5.6 5.0 4.8 4.9 5.3 6.4 3.7 2.6 1.7
6.5 6.3 5.7 5.0 3.6 2.2 0.9 0.7 0.0 -0.7 -1.5 -1.8 -2.2 -2.4 -2.0 -1.7 -1.9 -2.2 -2.1 -1.7 -1.6 -1.6 -2.1 -2.1 -2.2 -2.1 -1.6 -1.3 -1.0 -0.4 0.3 1.4 2.1 3.0 4.5 5.7 6.1 5.5 5.0 5.1 6.1 5.7 3.6
6.1 5.3 4.0 3.3 3.3 2.0 0.9 1.2 -0.2 -0.8 -1.1 -1.7 -2.0 -2.2 -2.2 -2.6 -3.0 -3.4 -2.8 -2.7 -2.5 -2.2 -2.4 -2.0 -1.7 -1.3 -1.2 -0.9 -0.7 0.7 0.5 0.8 0.9 1.7 2.4 3.3 5.2 6.2 6.1 5.9 6.2 5.1 4.4
5.9 5.1 4.4 3.2 2.8 2.1 1.2 0.2 -0.0 -0.8 -1.1 -1.5 -1.6 -2.2 -1.9 -2.1 -2.4 -2.7 -2.9 -3.1 -3.1 -2.5 -2.6 -2.3 -1.7 -1.2 -0.9 -0.6 -0.3 0.8 1.4 1.3 1.4 1.3 1.9 2.3 3.2 4.2 5.3 6.4 6.3 6.2 4.7
5.1 4.5 3.9 2.8 1.8 1.1 0.7 0.1 -0.2 -0.4 -1.0 -1.2 -1.7 -2.4 -2.5 -2.2 -2.5 -2.6 -2.5 -2.7 -2.9 -2.1 -2.7 -2.8 -2.6 -1.8 -1.3 -1.0 -0.7 0.8 1.5 1.7 1.9 2.2 1.4 2.4 3.0 3.8 4.3 4.9 6.1 6.6 6.5
4.9 4.1 3.2 2.4 1.8 1.0 0.3 0.1 -0.4 -1.2 -1.3 -1.5 -2.4 -2.4 -2.7 -2.6 -2.7 -2.7 -3.3 -3.1 -2.9 -3.0 -2.9 -2.8 -2.7 -2.4 -1.9 -1.6 -1.1 0.2 1.6 2.1 2.3 2.7 1.9 1.9 2.1 2.4 3.8 4.1 4.6 5.7 6.3
4.1 3.4 2.7 2.0 1.1 0.3 -0.5 -1.2 -1.6 -2.2 -2.3 -2.4 -2.9 -3.2 -3.2 -3.2 -3.2 -3.2 -3.3 -3.3 -2.8 -3.0 -3.0 -2.9 -2.8 -2.5 -2.2 -1.8 -1.4 -0.7 1.7 1.9 2.1 2.7 2.8 2.8 2.7 2.5 2.4 3.2 3.9 4.0 4.4
4.2 3.3 2.2 1.4 0.4 -0.6 -1.2 -2.1 -2.3 -2.8 -3.1 -2.8 -3.0 -3.2 -3.0 -3.0 -3.5 -3.4 -3.2 -3.1 -3.3 -2.8 -2.8 -2.6 -2.5 -2.2 -2.0 -1.7 -1.3 -1.0 0.8 2.0 2.2 1.9 2.0 2.6 3.3 3.2 3.2 3.1 3.2 3.1 3.7
3.6 2.2 1.0 -0.3 -1.3 -1.8 -2.2 -2.6 -2.7 -3.1 -3.2 -3.2 -3.5 -3.4 -3.3 -3.5 -3.9 -3.5 -3.0 -2.7 -2.9 -2.9 -2.7 -2.5 -2.5 -2.3 -2.0 -2.0 -1.0 -0.0 0.9 2.3 3.1 2.5 2.0 2.1 2.3 2.7 3.4 4.0 4.2 4.2 4.4
2.4 0.2 -1.6 -3.0 -4.2 -4.8 -5.6 -4.9 -4.1 -4.9 -4.7 -4.6 -4.5 -4.6 -4.4 -4.5 -4.0 -3.2 -2.5 -2.4 -2.3 -2.9 -2.7 -2.6 -2.7 -2.3 -2.2 -1.9 -0.1 1.6 2.3 2.4 3.5 3.0 2.1 2.0 2.5 2.5 3.4 4.8 5.4 5.8 4.8
0.0 -1.5 -3.4 -4.6 -5.3 -5.6 -5.4 -6.0 -5.5 -5.7 -7.0 -6.3 -5.8 -4.5 -5.0 -3.4 -3.0 -2.9 -2.3 -1.6 -1.6 -1.5 -1.7 -2.4 -2.1 -1.8 -1.5 0.3 2.6 3.6 3.1 2.4 2.0 0.6 1.1 2.3 2.9 4.0 5.2 6.4 6.9 6.2 6.1
0.3 -0.8 -2.5 -3.8 -3.5 -5.1 -4.2 -2.7 -3.3 -3.6 -5.3 -4.3 -3.9 -3.5 -3.9 -4.1 -3.6 -2.3 -1.9 -1.8 -1.5 -1.0 -1.4 -1.9 -2.2 -2.5 -0.1 2.9 5.7 8.8 6.5 4.0 3.1 1.5 1.3 1.1 2.5 2.6 4.5 4.9 5.7 7.0 7.3
-1.6 -1.5 -2.7 -3.7 -3.4 -3.1 -1.9 -3.7 -3.1 -4.0 -3.4 -3.5 -2.1 -1.6 -1.4 -1.5 -1.2 -1.1 -1.4 -1.0 -1.4 -1.6 -1.7 -1.5 -1.0 -1.1 -0.8 4.1 6.0 9.0 8.1 5.1 2.8 2.8 2.6 2.4 4.2 4.3 2.4 3.0 5.0 5.7 6.7
-1.4 -1.8 -3.4 -4.0 -3.2 -4.3 -4.5 -4.3 -4.5 -3.4 -3.2 -1.7 -1.1 -0.5 0.2 0.5 0.8 0.6 0.9 -0.4 -0.6 -0.2 0.2 0.7 0.9 0.5 2.9 5.2 6.6 8.6 8.3 6.5 5.0 3.9 3.7 3.4 3.3 3.4 5.7 5.4 4.8 5.5 6.0
-3.3 -3.5 -3.4 -3.7 -4.8 -3.4 -2.0 -5.0 -3.4 -3.1 -3.5 -0.8 -0.3 0.6 0.8 1.3 1.5 2.2 1.9 1.9 2.0 2.2 2.6 4.5 3.4 3.1 3.3 6.0 8.1 9.4 8.4 8.1 7.8 7.9 7.6 5.8 5.6 7.6 9.6 7.9 6.2 6.9 7.1
-2.8 -1.5 -0.8 -2.4 -4.6 -1.5 -3.4 -4.2 -1.4 -1.9 -0.5 1.4 1.3 2.4 2.5 2.8 2.5 2.7 2.8 3.0 1.8 4.5 4.9 5.1 4.7 4.6 4.5 5.6 8.5 9.6 9.7 8.7 9.2 8.8 9.1 9.6 9.3 9.7 9.6 8.3 7.6 7.0 7.5
-0.2 -0.4 -0.5 -1.3 -0.5 -0.1 -1.0 -0.3 0.5 0.7 3.0 3.7 3.8 3.7 4.2 4.0 3.5 3.5 3.5 3.7 4.1 4.9 4.1 4.5 4.0 4.0 5.1 5.8 8.5 9.6 9.7 9.4 9.2 9.6 9.3 9.7 9.8 9.9 9.8 9.7 8.0 7.8 8.6
0.7 1.1 0.7 0.5 0.6 1.0 1.6 1.8 1.8 3.7 4.2 4.2 4.3 4.5 4.2 4.3 6.0 5.5 5.2 5.4 4.7 4.1 3.3 4.0 4.0 5.1 5.9 7.3 8.6 9.7 9.7 9.6 9.5 9.0 9.4 9.0 9.6 9.5 9.5 9.6 9.8 9.6 9.2
1.7 2.5 2.0 1.8 1.6 2.0 2.7 2.9 3.1 3.8 3.6 3.4 3.8 3.7 4.2 5.2 5.8 5.8 5.6 5.4 4.4 4.3 4.3 5.1 5.1 5.4 6.9 7.4 8.6 9.6 9.7 9.7 9.6 9.8 9.7 9.9 9.9 9.9 9.5 9.2 9.5 9.3 7.9
1.8 1.5 0.8 0.9 1.1 2.2 3.4 3.3 3.6 4.1 4.3 4.1 3.7 3.9 4.0 4.2 4.2 5.2 6.0 5.7 4.6 4.2 4.9 5.2 5.8 5.9 6.7 7.5 8.2 8.5 7.5 7.8 8.4 8.5 8.1 8.7 8.9 8.4 9.1 8.7 8.6 9.0 8.7
2.1 2.5 2.3 2.8 2.7 3.2 2.9 2.5 3.9 4.1 3.9 4.1 4.1 3.8 4.3 4.2 4.3 4.8 4.9 4.7 4.7 6.0 5.9 5.7 5.8 6.6 7.6 8.5 9.3 9.0 8.9 8.8 9.3 8.4 5.8 6.0 6.7 7.3 7.9 8.2 8.7 8.6 8.3
2.5 2.8 3.1 3.6 3.4 3.7 3.5 3.5 3.6 3.5 3.7 4.1 4.4 4.2 4.7 4.3 4.6 4.4 4.3 5.7 8.0 9.4 9.5 9.6 9.4 9.0 9.6 9.6 9.6 9.5 9.6 9.7 9.9 4.9 2.7 3.5 6.1 7.2 8.0 8.2 8.4 8.5 8.7
Wind_Speed
13 14 15 15 15 17 18 19 18 20 16 12 7 5 8 9 16 21 26 27 27 28 25 18 19 19 8 8 6 2 4 2 1 1 2 2 4 5 4 8 6 7 8
10 13 15 15 16 15 16 17 18 18 17 12 10 5 6 7 14 18 22 26 26 27 23 21 17 19 9 11 11 5 1 1 2 1 1 3 4 3 3 3 4 6 8
10 11 13 13 13 15 15 16 17 17 21 22 15 10 9 9 8 13 16 23 26 27 25 23 19 18 15 8 10 10 8 2 1 4 1 2 3 3 2 3 3 5 3
9 10 11 13 13 12 13 13 15 16 21 25 13 16 11 9 8 8 15 18 24 25 26 24 22 19 16 10 9 14 9 7 3 1 4 3 3 2 4 2 2 3 5
9 11 11 12 12 12 10 12 12 15 21 22 19 11 13 9 7 8 12 17 20 22 26 24 22 20 17 16 15 10 11 7 5 5 2 2 3 3 4 8 4 2 4
8 9 10 10 10 11 12 11 13 14 19 19 19 15 15 13 11 12 10 9 14 18 24 24 22 20 19 17 16 14 10 8 8 7 8 5 3 2 4 6 6 6 4
7 8 9 10 11 12 13 11 13 14 14 14 14 13 13 12 12 12 9 12 9 10 19 23 21 19 20 19 18 14 10 9 8 9 7 7 7 5 5 5 7 4 3
8 8 9 8 10 12 12 12 12 12 13 13 12 16 16 9 7 10 6 7 8 11 20 21 21 20 21 20 19 13 12 14 8 10 7 7 6 6 7 7 6 8 4
6 7 7 7 7 9 10 10 11 12 12 12 11 12 15 13 10 14 14 12 15 18 19 19 18 20 21 20 19 11 9 12 9 9 10 8 8 7 7 7 7 7 8
7 6 5 6 6 7 7 8 9 9 9 9 11 11 12 14 14 14 12 14 15 18 18 18 18 18 18 20 19 13 14 10 8 8 11 9 8 9 7 7 7 7 8
5 4 4 4 5 5 7 7 9 9 9 9 11 10 11 12 12 12 13 14 15 17 16 17 16 16 16 17 15 12 12 12 11 11 11 12 12 7 8 8 7 7 7
6 4 4 5 5 6 7 7 7 8 8 9 9 7 10 11 10 10 13 15 13 15 15 16 15 15 15 16 12 9 9 11 10 10 12 12 11 11 10 7 8 9 9
5 4 5 5 5 5 6 6 6 6 6 7 7 7 7 6 6 9 13 14 13 14 15 15 12 13 15 14 14 11 9 9 8 7 9 11 12 11 10 10 9 8 7
4 2 4 4 5 5 5 6 6 5 6 6 6 6 6 6 8 13 14 14 16 13 14 14 14 14 15 14 14 13 9 8 7 8 8 10 10 11 13 11 11 9 9
1 2 3 5 5 6 5 5 5 5 3 5 5 6 6 12 13 12 15 17 17 16 17 14 15 16 14 12 14 11 6 6 6 5 10 14 19 24 19 10 10 11 9
3 4 4 5 5 5 5 5 5 6 3 5 6 6 5 5 5 9 10 12 12 15 15 11 10 7 11 22 23 22 9 4 5 9 10 12 18 17 23 24 24 17 12
4 5 5 5 5 6 5 5 6 3 5 5 6 6 5 5 6 6 5 6 6 8 6 7 9 8 11 25 25 24 13 6 6 8 9 9 11 20 13 19 23 20 22
5 5 5 4 6 4 4 4 4 4 4 5 6 6 5 5 5 5 5 5 4 5 6 6 7 4 12 23 25 26 14 7 7 7 8 9 11 11 14 12 11 11 10
5 5 5 5 5 6 6 4 5 5 4 6 6 6 5 6 5 6 6 6 6 6 6 7 6 7 9 22 22 20 10 10 9 11 12 9 9 17 24 12 7 11 10
4 6 7 4 4 7 4 3 6 5 6 7 7 6 5 5 5 6 8 5 3 9 8 10 11 15 11 21 21 21 9 10 9 11 12 20 18 25 25 14 11 12 12
7 5 6 6 7 6 4 6 6 7 9 8 7 6 7 7 6 7 4 5 7 8 7 8 8 10 15 15 22 23 11 9 10 10 9 9 23 27 27 25 13 14 16
6 6 6 7 7 6 5 8 9 10 8 8 8 9 8 7 8 9 8 8 7 8 6 7 8 7 13 19 20 23 23 22 10 10 9 10 25 27 27 21 25 27 23
7 6 7 9 8 7 7 9 11 9 8 8 9 9 9 9 9 10 9 7 5 5 6 7 8 8 8 10 21 24 24 23 13 10 18 29 27 26 19 21 23 25 10
7 6 6 8 10 8 10 10 11 9 9 10 10 9 9 9 8 7 6 7 6 5 7 8 9 9 9 9 9 10 14 22 16 18 14 17 15 17 16 14 13 9 9
8 7 8 10 12 10 10 10 10 8 10 10 10 10 8 9 9 8 7 7 8 9 8 9 9 9 8 9 19 17 10 10 13 13 5 6 6 6 7 7 8 8 8
9 9 11 12 12 10 11 12 10 9 10 10 9 8 8 7 7 7 8 20 24 25 25 26 19 11 21 27 27 27 26 27 27 3 1 2 4 6 7 7 7 7 10
Wind_Direction
45 37 31 25 21 22 19 17 15 14 15 14 7 5 20 26 27 23 22 23 23 20 21 15 14 9 12 3 344 28 40 3 53 28 300 286 273 270 263 278 281 285 280
44 36 29 25 24 19 19 18 18 17 20 18 12 10 353 21 28 19 22 22 24 23 21 17 13 11 4 11 5 351 33 342 187 297 340 316 326 316 277 279 277 271 288
50 41 35 27 23 22 17 19 17 18 21 20 21 22 28 28 19 14 14 16 20 22 20 19 17 14 15 10 356 1 346 307 277 242 253 316 253 321 330 331 272 276 285
56 49 40 35 26 21 20 20 21 20 22 22 25 34 38 30 15 7 10 14 18 20 17 16 15 16 11 8 358 357 348 345 297 309 244 243 180 215 307 310 287 257 255
64 52 46 41 31 21 20 19 24 25 21 27 28 30 32 29 17 14 16 15 14 18 16 13 11 12 9 2 357 353 356 352 336 323 303 255 244 235 252 281 289 297 250
66 56 43 42 33 25 19 27 22 25 22 23 27 28 29 20 21 15 15 10 10 10 11 8 9 7 5 1 354 347 351 354 350 347 335 288 249 233 224 254 267 254 254
73 59 41 32 33 26 20 20 21 23 18 20 23 22 24 24 22 15 10 8 4 5 3 3 2 2 359 357 355 353 351 360 349 349 339 337 324 296 275 273 272 265 253
72 61 48 38 29 25 23 17 19 20 15 17 16 17 19 20 18 11 5 6 1 355 360 357 359 358 358 357 354 355 351 355 349 345 348 334 332 342 323 294 292 288 267
78 63 49 37 29 22 20 17 17 19 16 15 9 13 12 17 12 7 5 3 359 358 355 356 355 356 358 356 352 351 351 353 354 347 351 343 336 337 332 327 301 275 285
83 62 47 36 29 22 12 16 16 14 8 9 8 9 3 5 6 6 3 358 355 354 353 353 352 352 353 354 351 347 347 349 355 354 347 346 343 330 329 327 325 308 275
93 63 40 31 22 18 13 10 12 8 5 2 359 358 358 357 357 0 355 351 348 350 350 348 345 347 347 348 346 341 347 341 352 350 348 340 340 337 331 325 321 318 325
98 62 33 17 11 8 5 1 1 2 355 352 350 349 347 349 349 348 345 344 341 343 344 343 342 342 342 341 336 330 328 331 344 344 345 338 336 331 332 330 322 314 312
98 43 20 3 354 349 349 345 338 338 334 340 341 340 340 341 335 335 336 340 340 339 340 343 339 336 336 332 324 314 311 311 320 330 334 331 330 327 324 322 317 316 308
100 23 356 328 316 309 308 319 318 324 321 333 333 328 325 323 322 327 332 335 338 332 335 333 327 327 327 322 310 306 303 303 318 321 328 324 320 312 308 309 309 316 318
152 338 296 290 294 306 305 303 293 298 294 315 319 307 304 316 321 323 326 329 331 327 328 325 325 323 326 323 318 305 287 299 311 309 316 316 310 310 306 304 307 317 310
231 277 276 279 293 287 290 293 293 294 304 307 299 296 300 302 295 303 309 315 314 317 323 321 315 314 321 326 323 325 318 305 312 315 311 300 311 307 310 309 301 295 294
237 283 274 264 274 278 270 281 284 285 297 292 293 293 291 292 290 290 298 298 296 301 299 302 306 306 311 323 322 318 319 313 292 293 293 298 298 309 297 299 299 296 293
260 275 272 278 274 263 286 268 268 274 271 284 283 285 279 279 283 289 284 281 272 284 292 290 286 302 315 323 322 317 319 306 292 281 279 279 286 284 295 289 284 283 278
245 249 252 258 267 276 273 276 293 283 284 284 276 274 264 275 276 288 293 289 287 295 291 306 317 307 299 318 320 319 316 301 305 299 292 277 269 281 296 291 294 304 304
248 269 273 262 274 275 255 265 278 271 275 272 266 265 254 256 265 273 283 282 253 298 303 307 310 306 309 308 310 315 310 306 303 303 298 306 307 305 305 303 304 297 296
271 265 264 255 257 267 254 272 273 271 272 276 273 266 275 270 268 270 268 277 286 292 289 288 295 290 291 292 308 312 306 302 298 304 309 306 307 301 299 298 301 300 297
281 272 269 268 266 264 264 271 271 272 266 263 264 272 270 268 286 283 283 284 284 282 278 293 294 288 284 292 300 305 305 304 307 299 299 292 291 290 296 301 299 301 303
273 264 260 273 271 250 242 260 266 269 265 262 266 266 268 272 274 277 278 279 265 276 281 288 290 287 284 282 291 301 300 299 298 299 292 302 303 307 308 300 292 303 314
265 258 251 261 273 265 261 255 265 264 262 266 267 267 268 269 253 252 260 276 269 264 272 275 275 275 278 275 269 273 278 282 286 280 282 286 307 341 334 326 312 300 296
280 271 267 268 267 267 260 256 259 255 259 263 267 268 266 266 267 259 257 255 254 253 257 254 253 262 275 280 281 292 297 286 287 307 9 346 338 324 314 310 311 313 314
274 269 265 267 271 266 266 270 261 245 253 264 267 262 263 254 252 257 264 266 276 282 281 284 284 280 284 294 296 296 301 298 300 61 295 279 317 308 305 302 298 298 305